TimeCDT,TemperatureF,Dew PointF,Humidity,Sea Level PressureIn,VisibilityMPH,Wind Direction,Wind SpeedMPH,Gust SpeedMPH,PrecipitationIn,Events,Conditions,WindDirDegrees,DateUTC
12:52 AM,61.0,57.0,87,29.79,9.0,SSE,20.7,29.9,0.00,Rain,Light Rain,150,2013-04-08 05:52:00
1:52 AM,61.0,55.9,83,29.74,10.0,SE,16.1,-,0.00,Rain,Light Rain,140,2013-04-08 06:52:00
2:31 AM,60.8,55.4,82,29.76,10.0,South,19.6,27.6,0.00,,Overcast,170,2013-04-08 07:31:00
2:52 AM,61.0,55.9,83,29.73,10.0,South,18.4,27.6,0.00,,Mostly Cloudy,170,2013-04-08 07:52:00
3:52 AM,61.0,55.0,81,29.72,10.0,South,17.3,25.3,N/A,,Overcast,170,2013-04-08 08:52:00
4:52 AM,60.1,55.0,83,29.74,10.0,SSW,10.4,23.0,0.00,Rain-Thunderstorm,Light Thunderstorms and Rain,210,2013-04-08 09:52:00
5:29 AM,59.0,55.4,88,29.70,9.0,South,19.6,27.6,0.17,Rain,Light Rain,180,2013-04-08 10:29:00
5:52 AM,57.9,54.0,87,29.69,10.0,South,13.8,25.3,0.17,,Mostly Cloudy,180,2013-04-08 10:52:00
6:52 AM,59.0,54.0,83,29.71,10.0,South,15.0,-,N/A,,Mostly Cloudy,180,2013-04-08 11:52:00
7:52 AM,60.1,54.0,80,29.73,10.0,South,20.7,26.5,N/A,,Scattered Clouds,190,2013-04-08 12:52:00
8:52 AM,63.0,55.9,78,29.74,10.0,SW,17.3,24.2,N/A,,Mostly Cloudy,220,2013-04-08 13:52:00
9:52 AM,66.0,57.0,73,29.77,10.0,WSW,16.1,23.0,N/A,,Scattered Clouds,250,2013-04-08 14:52:00
9:59 AM,64.4,57.2,77,29.78,10.0,WSW,13.8,23.0,N/A,,Mostly Cloudy,250,2013-04-08 14:59:00
10:52 AM,66.0,57.9,75,29.81,10.0,WNW,9.2,-,N/A,,Overcast,290,2013-04-08 15:52:00
11:52 AM,66.9,59.0,76,29.82,10.0,WSW,10.4,-,N/A,,Overcast,250,2013-04-08 16:52:00
12:52 PM,71.1,59.0,66,29.80,10.0,West,12.7,-,N/A,,Scattered Clouds,270,2013-04-08 17:52:00
1:52 PM,72.0,57.9,61,29.78,10.0,West,6.9,-,N/A,,Mostly Cloudy,280,2013-04-08 18:52:00
2:52 PM,73.0,57.9,59,29.79,10.0,WSW,10.4,-,N/A,,Overcast,250,2013-04-08 19:52:00
3:52 PM,73.0,57.0,57,29.78,10.0,WSW,8.1,-,N/A,,Mostly Cloudy,240,2013-04-08 20:52:00
4:52 PM,73.9,57.9,57,29.79,10.0,South,11.5,-,N/A,,Mostly Cloudy,190,2013-04-08 21:52:00
5:52 PM,73.0,57.9,59,29.81,10.0,South,9.2,-,N/A,,Mostly Cloudy,180,2013-04-08 22:52:00
6:52 PM,71.1,59.0,66,29.82,10.0,South,10.4,19.6,N/A,,Partly Cloudy,170,2013-04-08 23:52:00
7:52 PM,69.1,57.9,68,29.82,10.0,SSE,8.1,-,N/A,,Clear,150,2013-04-09 00:52:00
8:52 PM,66.0,57.9,75,29.86,10.0,SE,5.8,-,N/A,,Clear,140,2013-04-09 01:52:00
9:52 PM,64.0,57.9,80,29.86,10.0,SE,8.1,-,N/A,,Clear,130,2013-04-09 02:52:00
10:52 PM,64.0,57.0,78,29.88,10.0,SSE,8.1,-,N/A,,Clear,160,2013-04-09 03:52:00
11:52 PM,64.0,57.0,78,29.86,10.0,SSE,12.7,-,N/A,,Mostly Cloudy,160,2013-04-09 04:52:00